Hlavní strana
METAR-TAF:

METAR-TAF

Letiště :

Chesapeake Regional Airport

Norfolk, Virginie, Spojené státy americké

zeměpisná šířka: 36-39-56N, zeměpisná délka: 076-19-14W, výška: 6 m

Aktuální stav počasí

Zpráva byla vytvořena před 21 minutami, v 01:35 UTC
Jižní vítr 8 kt
Teplota 22°C
Vlhkost vzduchu 100%
Tlak 1015 hPa
Viditelnost: 16.1 km
Polojasno ve výšce 11000 ft

METAR: KCPK 300135Z AUTO 17008KT 10SM SCT110 22/22 A2998 RMK AO2 T02200215

Čas: 21:56 (01:56 UTC)


TAF: chybějící

Stav a předpovědi počasí z více než 4 000 letišť (zprávy METAR a TAF).

Červené a žluté tečky na mapě představují dostupné meteorologické stanice.

Když kurzor umístíte na tečku, zobrazí se název stanice.

Pak kliknutím zobrazíte stav a předpověď počasí.

Chcete-li změnit mapu, kliknutím na zelené tlačítko se znaménkem +mapu přiblížíte, kliknutím na zelené tlačítko se znaménkem – mapu oddálíte a kliknutím na zelené šipky přejdete na sousední mapy.


METAR-TAF: